Regional Weather Roundup
Issued by NWS Charleston, SC

Home | Current Version | Previous Version | Text Only | Print | Product List | Glossary On
Versions: 1 2 3 4 5 6 7 8 9 10 11 12 13 14 15 16 17 18 19 20 21 22 23 24 25 26 27 28 29 30 31 32 33 34 35 36 37 38 39 40 41 42 43 44 45 46 47 48 49 50
000
ASUS42 KCHS 260228
RWRCHS

REGIONAL WEATHER ROUNDUP
NATIONAL WEATHER SERVICE CHARLESTON SC
1000 PM EDT MON JUL 25 2016

NOTE: "FAIR" INDICATES FEW OR NO CLOUDS BELOW 12,000 FEET WITH NO
SIGNIFICANT WEATHER AND/OR OBSTRUCTIONS TO VISIBILITY.

NOT ALL STATIONS ARE QUALITY CONTROLLED. USE DATA WITH CAUTION...
ESPECIALLY DEWPOINT OBSERVATIONS.

SCZ027-030-031-034>040-042>050-260300-
...SOUTHEAST SOUTH CAROLINA...

CITY           SKY/WX    TMP DP  RH WIND       PRES   REMARKS
N CHARLESTON   PTCLDY    80  72  76 S6        30.06R
WATERFRONT PRK   N/A     84  76  77 S7        30.03R HX  93
MOUNT PLEASANT FAIR      79  73  83 CALM      30.06R
JOHNS ISLAND   FAIR      82  75  78 S6        30.06R
PINOPOLIS        N/A     82  73  74 VRB2      29.98R
MONCKS CORNER  FAIR      77  70  78 CALM      30.06R
SUMMERVILLE    FAIR      79  73  83 CALM      30.07R
BEAUFORT MCAS  CLEAR     82  74  76 S3        30.05R
BEAUFORT ARPT  FAIR      81  73  78 S6        30.05R
HILTON HEAD IS CLEAR     84  73  70 S8        30.07R HX  91
WALTERBORO     CLEAR     81  72  74 CALM      30.07R
ALLENDALE      FAIR      82  72  69 S7        30.04R

...SOUTHERN MIDLANDS AND PEE DEE...

CITY           SKY/WX    TMP DP  RH WIND       PRES   REMARKS
GEORGETOWN     FAIR      77  72  83 S3        30.07R
KINGSTREE      FAIR      79  70  73 SE5       30.05R
ORANGEBURG     CLEAR     83  70  64 S8        30.04R
BARNWELL       NOT AVBL
AIKEN          FAIR      81  70  69 S6        30.08R
MANNING        FAIR      81  72  74 S9        30.05R
COLUMBIA       CLEAR     87  71  58 S8        30.02R HX  93
SUMTER         CLEAR     84  71  64 S6        30.01R
FLORENCE       CLEAR     83  72  69 S7        30.04R
MYRTLE BEACH   CLEAR     82  70  65 SW12      30.06
N MYRTLE BEACH CLEAR     83  73  72 SW17      30.04R

$$

GAZ063-065-086>088-099>101-113>116-118-119-134>141-150-260300-
...SOUTHEAST GEORGIA...

CITY           SKY/WX    TMP DP  RH WIND       PRES   REMARKS
SAVANNAH ARPT  PTCLDY    81  72  74 S5        30.05
HUNTER AAF     CLEAR     82  76  83 S3        30.03R
FORT STEWART   CLEAR     79  72  79 CALM      30.03R
STATESBORO     CLEAR     82  72  71 S7        30.05R
SYLVANIA       NOT AVBL
CLAXTON        FAIR      82  71  69 CALM      30.05R

...CSRA...CENTRAL AND FAR SOUTHEAST GEORGIA...

CITY           SKY/WX    TMP DP  RH WIND       PRES   REMARKS
THOMSON        NOT AVBL
AUGUSTA-BUSH   CLEAR     85  69  58 S7        30.02R
AUGUSTA-DANIEL CLEAR     88  68  51 S10       30.04R HX  91
SWAINSBORO     FAIR      84  70  61 S7        30.06R
VIDALIA        CLEAR     82  70  65 S6        30.06R
EASTMAN        FAIR      81  61  50 CALM      30.06R
HAZLEHURST     FAIR      85  72  64 CALM      30.04R HX  91
ALMA           CLEAR     84  71  65 SE7       30.03R
WAYCROSS       CLEAR     86  76  73 S7        30.05R HX  96
JESUP          FAIR      81  77  89 S3        30.06R
BAXLEY         FAIR      82  75  78 SE5       30.04R
BRUNSWICK      CLEAR     84  77  79 S5        30.06R HX  94
SAINT SIMONS   PTCLDY    84  74  71 S10G16    30.05R HX  91

$$

SCZ027-028-034-036>038-045-046-048>050-GAZ119-141-260300-
...LAKE AND SUPPLEMENTAL COASTAL OBSERVATIONS...

STATION/POSITION TIME  TEMP    WIND        PRES    WAVE   SWELL
                       AIR SEA DIR/SP/G            HT/PER HT/PER/DIR
                 (UTC) (F)     (DEG/KT/KT) (MB)    (FT/S) (FT/S/D)
WINYAH BAY       0100   83     210/  6     1016.0S
LAKE MURRAY      NOT AVBL
ACE BASIN NERRS  0100   83        CALM     1017.0S
FORT PULASKI     0100   83 88  160/  4/  6   N/A
SAPELO ISLAND    0200   84     180/ 10     1018.0R

$$

ANZ835-935-AMZ111-154-330-350-352-354-370-450-454-472-260300-
...C-MAN AND BUOY OBSERVATIONS...

STATION/POSITION TIME  TEMP    WIND        PRES    WAVE   SWELL
                       AIR SEA DIR/SP/G            HT/PER HT/PER/DIR
                 (UTC) (F)     (DEG/KT/KT) (MB)    (FT/S) (FT/S/D)
BUOY 41004       0150   85 86  200/ 12/ 16 1017.4R   2/ 4   2/140/ 8
BUOY 41008       0150   85 87  150/ 14/ 17 1017.3R   2/ 3   2/100/ 8
FOLLY BEACH CMAN 0200   84     210/ 14/ 17 1018.1R
CAPERS NEARSHORE 0208   84 84  210/ 12/ 17 1017.8R
FRIPP NEARSHORE  0208   84 87  190/ 16/ 19 1017.1R


STATION/POSITION TIME  TEMP    WIND        PRES    WAVE   SWELL
                       AIR SEA DIR/SP/G            HT/PER HT/PER/DIR
                 (UTC) (F)     (DEG/KT/KT) (MB)    (FT/S) (FT/S/D)
5E ST. MARYS GA  0201      86                N/A     3/ 4
FRYING PAN BUOY  0200   85 85  210/ 16/ 17 1017.5R
BUOY 41025       0150   85 85  220/ 17/ 21 1016.8R   4/ 5   2/140/ 9
CAPE LOOKOUT NC  0200   84     220/ 12/ 14 1016.9R
BUOY 41002       0150   84 85  190/ 10/ 12 1018.9R   2/ 8   2/130/ 8
BUOY 41010       0120   85 87  160/ 10/ 12 1018.4R
ST AUGUSTINE FL  0200   83 86  160/ 16/ 17 1018.4R


$$



USA.gov is the U.S. government's official web portal to all federal, state and local government web resources and services.